[[{"header":{"parameterUnit":"m.s-1","parameterCategory":1,"la1":30.2991,"la2":30.254,"lo1":-89.0895,"lo2":-89.0444,"dy":0.0017,"dx":0.0017,"nx":28,"ny":28,"refTime":"2023-08-05T21:00:00:Z","depth":0,"parameterNumber":2,"parameterNumberName":"U-component_of_WINDS"},"data":[0,0,0,0,0,0,0,0,0,0,0,0,0,0,0,0,0,0,0,0,0,0,0,0,0,0,0,0,0,0,0,0,0,0,0,0,0,0,0,0,0,0,0,0,0,0,0,0,0,0,0,0,0,0,0,0,0,0,3.5181,3.5182,0,3.5296,3.5297,3.5298,3.5268,3.5265,3.5263,3.5261,3.5386,3.5391,3.5397,0,0,0,0,0,0,0,0,0,0,0,0,0,3.4942,3.4947,3.5181,3.5182,3.5183,3.5295,3.5297,3.5299,3.5268,3.5265,3.5262,3.526,3.5384,3.5391,3.5397,0,0,0,0,0,0,0,0,0,0,0,0,0,3.5051,3.4948,3.518,3.5182,3.5183,3.5295,3.5297,3.5299,3.5269,3.5265,3.5262,3.5258,3.5382,3.539,3.5398,3.5519,0,0,3.5423,3.5427,0,0,0,0,0,0,0,0,3.5045,3.5059,3.518,3.5182,3.5183,3.5264,3.5259,3.5373,3.527,3.5236,3.5261,3.5257,3.5349,3.5359,3.5389,3.5525,3.553,3.5424,3.5429,3.5433,3.5435,0,0,0,0,0,0,0,3.5037,3.5054,3.5226,3.5182,3.5184,3.5179,3.519,3.528,3.5311,3.5239,3.5237,3.5251,3.5349,3.5381,3.5392,3.5532,3.5424,3.5431,3.5436,3.544,3.5774,3.5778,0,0,0,0,0,0,3.5027,3.5048,3.5223,3.523,3.5104,3.5186,3.5199,3.5241,3.531,3.5317,3.5253,3.5249,3.5369,3.5382,3.5396,3.5543,3.5433,3.544,3.5445,3.577,3.5775,3.578,0,0,0,0,0,0,3.5022,3.5043,3.5218,3.5139,3.516,3.5194,3.5242,3.5246,3.5277,3.5321,3.5327,3.528,3.5366,3.5384,3.5488,3.5547,3.5444,3.5452,3.5766,3.5772,3.5777,3.5837,0,0,0,0,0,0,3.5015,3.5041,3.5086,3.514,3.5165,3.5306,3.5245,3.525,3.5291,3.5286,3.5347,3.5354,3.5365,3.5476,3.5497,3.5556,3.5458,3.5761,3.5769,3.5776,3.583,3.5844,3.5856,0,0,0,0,0,3.5007,3.5099,3.5088,3.5109,3.522,3.531,3.5324,3.5333,3.5296,3.5342,3.537,3.5352,3.5537,3.5487,3.551,3.5573,3.5757,3.5766,3.5775,3.5824,3.5841,3.5856,0,0,0,0,0,0,3.5053,3.5106,3.5094,3.5206,3.5253,3.5304,3.5362,3.5351,3.5411,3.5405,3.5415,3.5429,3.5536,3.5565,3.5508,3.5694,3.5642,3.5656,3.5671,3.5688,3.5701,3.5693,3.5465,0,0,0,0,0,3.5076,3.5142,3.5185,3.528,3.5304,3.5329,3.5368,3.5371,3.5421,3.5442,3.5477,3.5529,3.5599,3.5645,3.5711,3.5833,3.5848,3.5888,3.5901,3.5912,3.5924,3.5993,3.6012,3.5809,3.5809,3.5808,0,0,3.5124,3.5161,3.5203,3.529,3.5327,3.5397,3.5346,3.5423,3.5476,3.5454,3.5554,3.5582,3.5641,3.5755,3.5807,3.5782,3.5983,3.5923,3.5931,3.5938,3.6004,3.6023,3.604,3.5815,3.5814,3.5813,0,0,3.5249,3.5282,3.5365,3.5403,3.5459,3.5475,3.5495,3.5548,3.5566,3.5665,3.5651,3.5716,3.5835,3.5878,3.5916,3.6057,3.6045,3.6079,3.6148,3.6215,3.6231,3.6246,3.6298,3.6316,3.6091,3.6091,3.6091,0,3.5303,3.5406,3.541,3.5488,3.5528,3.5509,3.5595,3.5632,3.5708,3.5737,3.5708,3.5858,3.5896,3.6021,3.6055,3.6085,3.6111,3.6073,3.6228,3.6242,3.6256,3.6306,3.6326,3.6095,3.6094,3.6094,3.6094,0,3.547,3.5542,3.5603,3.5674,3.5721,3.5803,3.5822,3.5869,3.5868,3.5888,3.5992,3.6037,3.6113,3.6142,3.6142,3.6268,3.6251,3.6225,3.6173,3.6279,3.6327,3.6346,3.6101,3.6099,3.6098,3.6097,0,0,3.5628,3.57,3.5722,3.5755,3.5816,3.5873,3.5955,3.6027,3.6068,3.6121,3.6192,3.6294,3.627,3.6313,3.6318,3.6376,3.6488,3.6343,3.6345,3.637,3.6631,3.6651,3.6673,3.6479,3.6482,3.6485,3.6627,0,3.5759,3.59,3.5906,3.6036,3.6104,3.6088,3.6159,3.6206,3.6227,3.629,3.6315,3.6387,3.635,3.6376,3.6432,3.6462,3.6541,3.6452,3.6548,3.6551,3.6534,3.6698,3.6719,3.685,3.6645,3.6648,3.665,0,3.593,3.5987,3.6123,3.6175,3.6203,3.6267,3.6335,3.6394,3.6447,3.6459,3.6507,3.6504,3.659,3.6534,3.6656,3.6595,3.6635,3.6655,3.6661,3.6671,3.6608,3.6715,3.6892,3.6912,3.6679,3.6677,3.6675,0,3.6034,3.6144,3.624,3.6268,3.6331,3.6376,3.6405,3.6455,3.6498,3.6558,3.6586,3.6656,3.6695,3.675,3.6767,3.6725,3.6889,3.6834,3.6903,3.6903,3.694,3.6938,3.7128,3.6963,3.6963,3.6962,3.6962,0,3.618,3.6264,3.6287,3.6346,3.6441,3.6449,3.6544,3.657,3.6614,3.668,3.6671,3.6733,3.6751,3.6818,3.6832,3.6931,3.6949,3.6962,3.6965,3.6964,3.6963,3.6991,3.6983,3.6968,3.6966,3.6965,3.6964,0,3.6312,3.633,3.6434,3.6484,3.6499,3.6567,3.6611,3.667,3.6689,3.6773,3.6793,3.6826,3.6904,3.6926,3.702,3.7029,3.7147,3.7141,3.7128,3.7129,3.7198,3.7191,3.7414,3.7445,3.7258,3.726,3.7262,0,3.6405,3.6469,3.6526,3.6568,3.6598,3.6667,3.6711,3.6722,3.6768,3.6834,3.6885,3.6962,3.7023,3.715,3.7183,3.7256,3.7253,3.7326,3.7264,3.7261,3.7256,3.7252,3.726,3.7338,3.734,3.7342,3.7343,0,3.6569,3.6574,3.6636,3.6703,3.6754,3.6807,3.6858,3.6894,3.6913,3.6966,3.7045,3.7092,3.7188,3.7265,3.7338,3.7371,3.7362,3.7362,3.7382,3.7382,3.7373,3.738,3.7162,3.7357,3.7356,3.7355,3.7354,3.7353,3.6685,3.6742,3.6791,3.6861,3.69,3.6948,3.7005,3.7032,3.7097,3.7174,3.7177,3.7263,3.7317,3.7414,3.745,3.7519,3.7498,3.7527,3.7535,3.7542,3.7548,3.736,3.7533,3.7532,3.7532,3.7532,3.7531,0,3.685,3.688,3.6944,3.7015,3.7071,3.7054,3.711,3.7159,3.7233,3.7283,3.7343,3.7435,3.751,3.7549,3.7624,3.7672,3.767,3.7691,3.7689,3.7697,3.7562,3.7538,3.7692,3.7692,3.7692,3.7692,3.7692,3.7692,3.6942,3.7038,3.705,3.7166,3.7196,3.7278,3.7312,3.7357,3.7397,3.7498,3.7559,3.7583,3.763,3.7708,3.7777,3.7787,3.7816,3.784,3.7848,3.7722,3.7706,3.769,3.7668,3.7846,3.7846,3.7977,3.7978,3.7979]},{"header":{"parameterUnit":"m.s-1","parameterCategory":1,"la1":30.2991,"la2":30.254,"lo1":-89.0895,"lo2":-89.0444,"dy":0.0017,"dx":0.0017,"nx":28,"ny":28,"refTime":"2023-08-05T21:00:00:Z","depth":0,"parameterNumber":3,"parameterNumberName":"V-component_of_WINDS"},"data":[0,0,0,0,0,0,0,0,0,0,0,0,0,0,0,0,0,0,0,0,0,0,0,0,0,0,0,0,0,0,0,0,0,0,0,0,0,0,0,0,0,0,0,0,0,0,0,0,0,0,0,0,0,0,0,0,0,0,2.5248,2.5249,0,2.5305,2.5306,2.5306,2.5338,2.5338,2.5339,2.5339,2.5394,2.5395,2.5396,0,0,0,0,0,0,0,0,0,0,0,0,0,2.5163,2.5165,2.5248,2.5249,2.525,2.5305,2.5306,2.5307,2.5338,2.5338,2.5339,2.5339,2.5393,2.5395,2.5397,0,0,0,0,0,0,0,0,0,0,0,0,0,2.5208,2.5165,2.5248,2.5272,2.5275,2.5305,2.5306,2.5307,2.5338,2.5338,2.5339,2.5339,2.5393,2.5395,2.5397,2.5406,0,0,2.5403,2.5404,0,0,0,0,0,0,0,0,2.5205,2.5211,2.5268,2.5271,2.5274,2.5315,2.5296,2.534,2.5338,2.5314,2.5339,2.5339,2.5367,2.5371,2.5382,2.5409,2.5411,2.5403,2.5404,2.5405,2.5406,0,0,0,0,0,0,0,2.5202,2.5209,2.5271,2.5269,2.5272,2.5279,2.5285,2.5304,2.5339,2.5316,2.5319,2.5325,2.5369,2.5379,2.5383,2.5412,2.5403,2.5405,2.5406,2.5407,2.5447,2.5447,0,0,0,0,0,0,2.5196,2.5206,2.5269,2.5272,2.5239,2.528,2.5288,2.5301,2.5339,2.5345,2.5325,2.5326,2.5376,2.5381,2.5385,2.5397,2.5405,2.5407,2.5408,2.5447,2.5447,2.5446,0,0,0,0,0,0,2.5194,2.5201,2.5267,2.524,2.5249,2.5282,2.5297,2.5302,2.5313,2.5346,2.5351,2.533,2.5376,2.5382,2.54,2.5399,2.5408,2.541,2.5447,2.5447,2.5447,2.5422,0,0,0,0,0,0,2.5191,2.52,2.5205,2.524,2.525,2.5282,2.5297,2.5303,2.5317,2.532,2.5352,2.5357,2.5377,2.5397,2.5402,2.5402,2.5412,2.5447,2.5447,2.5447,2.5423,2.5421,2.5419,0,0,0,0,0,2.5188,2.5196,2.5205,2.5213,2.5257,2.5282,2.5288,2.5311,2.5317,2.5321,2.5342,2.5356,2.5399,2.5399,2.5405,2.5405,2.5447,2.5447,2.5447,2.5424,2.5421,2.5419,0,0,0,0,0,0,2.516,2.5201,2.5212,2.5232,2.5253,2.5287,2.5294,2.5308,2.5328,2.5329,2.5356,2.5363,2.5378,2.5394,2.5393,2.5415,2.5424,2.5425,2.5405,2.5403,2.5401,2.5396,2.5413,0,0,0,0,0,2.5156,2.5174,2.5209,2.5222,2.5233,2.5261,2.5273,2.5289,2.5312,2.5321,2.5343,2.5364,2.5382,2.5393,2.5411,2.5425,2.5431,2.5428,2.5426,2.5424,2.5425,2.5431,2.5429,2.5445,2.5445,2.5445,0,0,2.5149,2.5173,2.5183,2.5217,2.5236,2.5252,2.5269,2.5286,2.5298,2.5324,2.5342,2.5358,2.5383,2.5398,2.5406,2.5412,2.5421,2.5424,2.5422,2.5424,2.543,2.5429,2.5427,2.5445,2.5445,2.5445,0,0,2.5143,2.5164,2.5177,2.5195,2.5223,2.5241,2.5244,2.5276,2.5288,2.5307,2.5326,2.5339,2.537,2.5387,2.5399,2.5396,2.541,2.5402,2.5391,2.5397,2.5396,2.5395,2.5392,2.5391,2.5402,2.5402,2.5402,0,2.513,2.5156,2.5181,2.5197,2.5211,2.5235,2.5247,2.5263,2.5295,2.5303,2.5309,2.5346,2.5365,2.5384,2.5383,2.5392,2.5395,2.5398,2.5394,2.5393,2.5393,2.5391,2.539,2.54,2.5401,2.5401,2.5401,0,2.5138,2.5156,2.5162,2.5193,2.5207,2.5221,2.5246,2.5258,2.5271,2.5289,2.5306,2.5329,2.5352,2.5357,2.5371,2.5377,2.5379,2.5389,2.5399,2.5389,2.5388,2.5388,2.5399,2.5399,2.54,2.54,0,0,2.5118,2.516,2.5162,2.5176,2.5207,2.522,2.5234,2.5256,2.5265,2.5285,2.5296,2.5321,2.5329,2.5343,2.5359,2.5364,2.5358,2.5373,2.5374,2.5368,2.5364,2.5356,2.5355,2.5367,2.5367,2.5367,2.5361,0,2.5116,2.5143,2.5165,2.5183,2.5198,2.522,2.5231,2.5251,2.5266,2.5281,2.5298,2.5314,2.5325,2.5334,2.534,2.5358,2.5358,2.5359,2.5376,2.5377,2.5369,2.5354,2.5346,2.534,2.5361,2.5361,2.5361,0,2.5118,2.5138,2.5157,2.5185,2.5192,2.5202,2.5223,2.5237,2.5259,2.527,2.5284,2.53,2.5313,2.5321,2.5339,2.5339,2.5347,2.5357,2.5357,2.5359,2.5368,2.5355,2.5339,2.5337,2.5361,2.5361,2.5361,0,2.51,2.5131,2.5147,2.5157,2.519,2.5196,2.521,2.5232,2.5243,2.5261,2.5268,2.5287,2.5297,2.531,2.533,2.5334,2.5345,2.5355,2.5353,2.5352,2.5354,2.5354,2.5338,2.5361,2.5361,2.5361,2.5361,0,2.5096,2.5107,2.5139,2.5148,2.516,2.5183,2.5194,2.5209,2.5228,2.5239,2.5259,2.5269,2.5295,2.5307,2.5322,2.5334,2.5338,2.5346,2.535,2.5344,2.5343,2.535,2.5351,2.536,2.5361,2.5361,2.5361,0,2.5078,2.51,2.5118,2.5147,2.5154,2.5162,2.5186,2.5194,2.5211,2.5225,2.5229,2.5254,2.527,2.529,2.5313,2.5323,2.5331,2.5338,2.5324,2.5327,2.5323,2.5322,2.531,2.5309,2.5333,2.5333,2.5332,0,2.5074,2.5083,2.5112,2.5121,2.5134,2.5149,2.516,2.5183,2.5193,2.5217,2.5222,2.5239,2.5254,2.5277,2.5297,2.5313,2.5319,2.5314,2.5322,2.5315,2.5318,2.5317,2.5317,2.5312,2.5312,2.5311,2.5311,0,2.5064,2.5074,2.509,2.5108,2.5121,2.5137,2.5154,2.516,2.5185,2.5196,2.5212,2.5223,2.5245,2.5261,2.5279,2.5292,2.5305,2.5308,2.5308,2.5302,2.5293,2.5297,2.5318,2.5308,2.5309,2.5309,2.5309,2.5309,2.5052,2.506,2.5081,2.5098,2.5112,2.5127,2.5136,2.5152,2.5166,2.5186,2.5198,2.5213,2.5231,2.5257,2.5269,2.528,2.5286,2.5286,2.5286,2.5286,2.5283,2.5292,2.5284,2.5284,2.5284,2.5284,2.5284,0,2.5042,2.5056,2.5071,2.5093,2.5105,2.5116,2.5135,2.5144,2.5157,2.5173,2.5187,2.5204,2.5218,2.5238,2.5254,2.5259,2.5265,2.5262,2.5262,2.5264,2.5278,2.5276,2.5257,2.5257,2.5257,2.5257,2.5257,2.5257,2.5038,2.5051,2.5063,2.5083,2.5096,2.5111,2.512,2.5133,2.5146,2.5164,2.5177,2.5189,2.5206,2.5223,2.5236,2.5242,2.5246,2.5241,2.5248,2.5261,2.5263,2.5266,2.5263,2.5242,2.5242,2.5233,2.5233,2.5232]}]]